Regional Weather Roundup
Issued by NWS

Home | Current Version | Previous Version | Text Only | Print | Product List | Glossary On
Versions: 1 2 3 4 5 6 7 8 9 10 11 12 13 14 15 16 17 18 19 20 21 22 23 24 25 26 27 28 29 30 31 32 33 34 35 36 37 38 39 40 41 42 43 44 45 46 47 48 49 50
000
ASUS43 KDTX 281801
RWRMI
MICHIGAN HOURLY REGIONAL WEATHER ROUNDUP
NATIONAL WEATHER SERVICE DETROIT/PONTIAC MI
100 PM EST SUN DEC 28 2014

NOTE: "FAIR" INDICATES FEW OR NO CLOUDS BELOW 12,000 FEET WITH NO
SIGNIFICANT WEATHER AND/OR OBSTRUCTION TO VISIBILITY.

MIZ047>049-052>055-059>063-066>070-074>076-081>083-281900-
SOUTHEAST LOWER MICHIGAN

CITY           SKY/WX    TMP DP  RH WIND       PRES   REMARKS
ADRIAN         CLOUDY    35  25  66 NW12      30.10F WCI  27
6HR MIN TEMP:  34; 6HR MAX TEMP:  36;

ALMA           SUNNY     32  20  60 W12       30.09F WCI  23
6HR MIN TEMP:  28; 6HR MAX TEMP:  32;

ANN ARBOR      CLOUDY    36  25  64 NW12      30.08F WCI  28
BAD AXE        PTSUNNY   34  24  68 W15       30.05F WCI  24
CARO           MOSUNNY   33  25  73 W14       30.07S WCI  23
DETROIT CITY   CLOUDY    38  25  59 W9        30.08F WCI  31
6HR MIN TEMP:  38; 6HR MAX TEMP:  39;

DETROIT        CLOUDY    38  27  64 W10       30.09F WCI  31
6HR MIN TEMP:  36; 6HR MAX TEMP:  38;

FLINT          CLOUDY    35  22  58 W14       30.08F WCI  26
6HR MIN TEMP:  34; 6HR MAX TEMP:  36;

GROSSE ILE     CLOUDY    37  28  70 W7        30.07S WCI  32
HILLSDALE      CLOUDY    34  26  74 W9        30.08F WCI  27
HOWELL         CLOUDY    33  24  71 W10G17    30.08F WCI  24
6HR MIN TEMP:  32; 6HR MAX TEMP:  34;


CITY           SKY/WX    TMP DP  RH WIND       PRES   REMARKS
JACKSON        CLOUDY    33  23  66 W12       30.09F WCI  24
6HR MIN TEMP:  32; 6HR MAX TEMP:  34;

LAMBERTVILLE   CLOUDY    37  28  70 W8        30.10S WCI  31
LANSING        PTSUNNY   33  23  66 W14       30.10F WCI  23
6HR MIN TEMP:  30; 6HR MAX TEMP:  33;

LAPEER         FAIR      33  23  65 NW8       30.07S WCI  27
MASON          CLOUDY    32  23  70 W9        30.09F WCI  24
MONROE         CLOUDY    37  28  70 NW7       30.07F WCI  32
MT. CLEMENS    PTSUNNY   38  27  65 W13       30.05F WCI  30
6HR MIN TEMP:  34; 6HR MAX TEMP:  38;

PONTIAC        CLOUDY    34  23  64 W16       30.06F WCI  24
6HR MIN TEMP:  34; 6HR MAX TEMP:  35;

PORT HOPE        N/A     35  20  54 W13G21    30.02F WCI  26
6HR MIN TEMP:  33; 6HR MAX TEMP:  36;

PORT HURON     CLOUDY    36  28  75 W7        30.06S WCI  30
TRI CITIES     MOSUNNY   33  20  58 W14G22    30.08F WCI  23
6HR MIN TEMP:  33; 6HR MAX TEMP:  35;

TROY           CLOUDY    38  25  60 W10G16    30.09S WCI  31
SAGINAW HB     MOSUNNY   34  25  69 W14       30.07F WCI  24
$$
MIZ043>046-050>051-056>058-064>065-071>073-077>080-281900-
SOUTHWEST LOWER MICHIGAN

CITY           SKY/WX    TMP DP  RH WIND       PRES   REMARKS
BATTLE CREEK   PTSUNNY   35  23  61 W12       30.11S WCI  27
6HR MIN TEMP:  32; 6HR MAX TEMP:  36;

BENTON HARBOR  PTSUNNY   32  24  72 W13       30.14F WCI  22
6HR MIN TEMP:  30; 6HR MAX TEMP:  32; 6HR PCP: TRACE;

BIG RAPIDS     CLOUDY    31  24  75 W8        30.08F WCI  23
6HR MIN TEMP:  26; 6HR MAX TEMP:  32;

COLDWATER      CLOUDY    33  24  70 NW7       30.10F WCI  27
6HR MIN TEMP:  32; 6HR MAX TEMP:  33;

FREMONT        CLOUDY    32  22  67 W8        30.11S WCI  25
6HR MIN TEMP:  25; 6HR MAX TEMP:  32;

HOLLAND        PTSUNNY   34  22  61 W14       30.13F WCI  25
6HR MIN TEMP:  33; 6HR MAX TEMP:  36;

GRAND RAPIDS   PTSUNNY   33  21  61 W16       30.11F WCI  23
6HR MIN TEMP:  30; 6HR MAX TEMP:  34;

IONIA          FAIR      33  23  67 W10       30.09F WCI  25
KALAMAZOO      PTSUNNY   36  23  59 W13       30.12F WCI  27
6HR MIN TEMP:  32; 6HR MAX TEMP:  36;

LUDINGTON      PTSUNNY   30  23  74 W5        30.12S WCI  25
MARSHALL       CLOUDY    33  24  69 W10       30.09F WCI  25
MOUNT PLEASANT PTSUNNY   33  20  59 CALM      30.08F
MUSKEGON       CLOUDY    33  22  63 W10       30.12F WCI  25
6HR MIN TEMP:  29; 6HR MAX TEMP:  34;

SOUTH HAVEN    PTSUNNY   33  25  71 W12       30.14F WCI  25
$$
MIZ016>042-281900-
NORTHERN LOWER MICHIGAN

CITY           SKY/WX    TMP DP  RH WIND       PRES   REMARKS
ALPENA         MOSUNNY   32  17  54 W13G21    30.00F WCI  22
6HR MIN TEMP:  28; 6HR MAX TEMP:  33;

BEAVER ISLAND  CLOUDY    27  23  85 W10G17    30.03S WCI  17
6HR MIN TEMP:  24; 6HR MAX TEMP:  28;

BELLAIRE       CLOUDY    30  20  66 SW7       30.05F WCI  23
6HR MIN TEMP:  28; 6HR MAX TEMP:  31;

CADILLAC       CLOUDY    29  21  70 SW14      30.03F WCI  18
CHARLEVOIX     CLOUDY    29  22  74 W16G22    30.06F WCI  17
6HR MIN TEMP:  27; 6HR MAX TEMP:  29;

FRANKFORT      CLOUDY    28  22  78 W10       30.09S WCI  19
GAYLORD        CLOUDY    26  19  74 W14G23    29.99F WCI  14
6HR MIN TEMP:  23; 6HR MAX TEMP:  27;

GRAYLING       CLOUDY    28  20  71 W9        30.03S WCI  19
HARBOR SPRINGS CLOUDY    28  21  74 W10G21    30.01S WCI  19
HOUGHTON LAKE  PTSUNNY   29  19  66 W13       30.03F WCI  19
6HR MIN TEMP:  25; 6HR MAX TEMP:  29;

MANISTEE       PTSUNNY   28  19  69 W14       30.10F WCI  17
OSCODA         SUNNY     35  20  53 W13       30.02F WCI  27
PELLSTON       CLOUDY    29  20  69 W12       30.01S WCI  19
6HR MIN TEMP:  23; 6HR MAX TEMP:  29;

ROGERS CITY    CLOUDY    31  21  65 W13G20    30.00F WCI  21
TRAVERSE CITY  CLOUDY    30  20  66 W12       30.06S WCI  20
6HR MIN TEMP:  26; 6HR MAX TEMP:  31;

$$
MIZ007>008-015-281900-
EASTERN UPPER MICHIGAN

CITY           SKY/WX    TMP DP  RH WIND       PRES   REMARKS
KINROSS        CLOUDY    25  23  93 W12       29.97S WCI  14
6HR MIN TEMP:  21; 6HR MAX TEMP:  27;

MACKINAC ISLAN FLURRIES  27  22  80 W14       29.99F WCI  16
6HR MIN TEMP:  26; 6HR MAX TEMP:  28;

NEWBERRY       LGT SNOW  22  20  92 W10       29.99S WCI  11
S. S. MARIE    LGT SNOW  25  20  81 NW12      29.98R WCI  14
6HR MIN TEMP:  24; 6HR MAX TEMP:  26; 6HR PCP:  0.03;

MUNISING         N/A     27  16  63 W13G24    30.03S WCI  16
6HR MIN TEMP:  19; 6HR MAX TEMP:  28;

$$
MIZ004>006-011>014-085-281900-
CENTRAL UPPER MICHIGAN

CITY           SKY/WX    TMP DP  RH WIND       PRES   REMARKS
MANISTIQUE     PTSUNNY   23  19  82 NW13      30.03F WCI  11
6HR MIN TEMP:  17; 6HR MAX TEMP:  23;

ESCANABA       SUNNY     23  16  74 NW10      30.06S WCI  12
6HR MIN TEMP:  16; 6HR MAX TEMP:  23;

MENOMINEE      SUNNY     25  14  63 NW9       30.09F WCI  15
6HR MIN TEMP:  16; 6HR MAX TEMP:  25;

SAWYER-GWINN   MOSUNNY   21  14  73 W12       30.01F WCI   9
$$
MIZ001>003-009>011-084-281900-
WESTERN UPPER MICHIGAN

CITY           SKY/WX    TMP DP  RH WIND       PRES   REMARKS
IRON MOUNTAIN    N/A     21  13  71 NW12      30.04S WCI   9
6HR MIN TEMP:  13; 6HR MAX TEMP:  21; 6HR PCP: TRACE;

HOUGHTON       LGT SNOW  15   7  70 NW17      30.04S WCI  -1
6HR MIN TEMP:  15; 6HR MAX TEMP:  20; 6HR PCP:  0.01;

COPPER HARBOR    N/A     19  12  74 N21G26    30.06R WCI   3
6HR MIN TEMP:  18; 6HR MAX TEMP:  24;

IRONWOOD       CLOUDY    14   9  79 NW10      30.08S WCI   1
6HR MIN TEMP:  14; 6HR MAX TEMP:  18;

$$

ABBREVIATIONS USED IN REMARKS
   TC - TEMPERATURE IN CELSIUS
  WCI - WIND CHILL INDEX
   HX - HEAT INDEX
  VSB - VISIBILITY



USA.gov is the U.S. government's official web portal to all federal, state and local government web resources and services.